Red Bluff, CA

6:49 PM PST on November 20, 2019 (GMT -0800)
Red Bluff Municipal

Weather History for KRBL - September, 2019

Change the Weather History Date:

Monday, September 9, 2019

  Actual Average Record
Temperature  
Mean Temperature 72 °F -  
Max Temperature 84 °F 93 °F 112 °F (1944)
Min Temperature 59 °F 61 °F 51 °F (1964)
Cooling Degree Days 6    
Growing Degree Days 22 (Base 50)    
Moisture  
Dew Point 45 °F    
Average Humidity 36    
Maximum Humidity 58    
Minimum Humidity 15    
Precipitation  
Precipitation 0.00 in - - ()
Sea Level Pressure  
Sea Level Pressure 29.86 in    
Wind  
Wind Speed 8 mph (NNW)    
Max Wind Speed 15 mph    
Max Gust Speed 18 mph    
Visibility 10 miles    
Events      
Averages and records for this station are not official NWS values.
T = Trace of Precipitation, MM = Missing Value Source: NWS Daily Summary

Daily Weather History Graph

Daily Weather History Graph

Search for Another Location

Airport or City:

Astronomy

Sep. 09, 2019 Rise Set
Actual Time 6:44 AM PDT 7:27 PM PDT
Civil Twilight 6:16 AM PDT 7:55 PM PDT
Nautical Twilight 5:44 AM PDT 8:27 PM PDT
Astronomical Twilight 5:10 AM PDT 9:01 PM PDT
Moon 5:27 PM PDT (9/9) 2:19 AM PDT (9/9)
Length of Visible Light 13h 38m
Length of Day
12h 43m
Waxing Gibbous, 83% of the Moon is Illuminated
Sep 9
Waxing Gibbous
Sep 13
Full
Sep 21
Last Quarter
Sep 28
New
Oct 5
First Quarter

Hourly Weather History & Observations

Time (PDT) Temp. Dew Point Humidity Pressure Visibility Wind Dir Wind Speed Gust Speed Precip Events Conditions
12:54 AM 72.0 °F 45.0 °F 38% 29.92 in 10.0 mi NW 15.0 mph - N/A   Clear
1:54 AM 66.9 °F 46.0 °F 47% 29.92 in 10.0 mi North 5.8 mph - N/A   Clear
2:54 AM 64.9 °F 46.0 °F 50% 29.91 in 10.0 mi NNW 4.6 mph - N/A   Clear
3:54 AM 63.0 °F 46.0 °F 54% 29.91 in 10.0 mi NNW 6.9 mph - N/A   Clear
4:54 AM 63.0 °F 46.0 °F 54% 29.91 in 10.0 mi NW 4.6 mph - N/A   Clear
5:54 AM 62.1 °F 46.0 °F 56% 29.90 in 10.0 mi North 6.9 mph - N/A   Clear
6:54 AM 61.0 °F 46.0 °F 58% 29.91 in 10.0 mi North 3.5 mph - N/A   Clear
7:54 AM 64.0 °F 46.9 °F 54% 29.92 in 10.0 mi North 5.8 mph - N/A   Clear
8:54 AM 70.0 °F 46.0 °F 42% 29.93 in 10.0 mi NNW 6.9 mph - N/A   Clear
9:54 AM 73.0 °F 46.9 °F 39% 29.92 in 10.0 mi NNE 5.8 mph - N/A   Clear
10:54 AM 75.0 °F 48.0 °F 38% 29.91 in 10.0 mi Calm Calm - N/A   Clear
11:54 AM 79.0 °F 48.0 °F 34% 29.89 in 10.0 mi ESE 6.9 mph - N/A   Clear
12:54 PM 81.0 °F 46.0 °F 29% 29.87 in 10.0 mi Variable 4.6 mph - N/A   Clear
1:54 PM 82.9 °F 45.0 °F 26% 29.84 in 10.0 mi SSE 4.6 mph - N/A   Clear
2:54 PM 84.0 °F 44.1 °F 25% 29.82 in 10.0 mi North - - N/A   Clear
3:54 PM 84.0 °F 44.1 °F 25% 29.81 in 10.0 mi South 11.5 mph - N/A   Clear
4:54 PM 84.0 °F 44.1 °F 25% 29.78 in 10.0 mi South 8.1 mph - N/A   Clear
5:54 PM 84.0 °F 43.0 °F 24% 29.78 in 10.0 mi South 9.2 mph - N/A   Mostly Cloudy
6:54 PM 82.0 °F 42.1 °F 24% 29.77 in 10.0 mi SSE 6.9 mph - N/A   Mostly Cloudy
7:54 PM 79.0 °F 42.1 °F 27% 29.78 in 10.0 mi South 4.6 mph - N/A   Mostly Cloudy
8:54 PM 77.0 °F 42.1 °F 29% 29.79 in 10.0 mi NW 8.1 mph - N/A   Partly Cloudy
9:54 PM 73.9 °F 44.1 °F 34% 29.80 in 10.0 mi WNW 10.4 mph - N/A   Partly Cloudy
10:54 PM 72.0 °F 43.0 °F 35% 29.81 in 10.0 mi NW 12.7 mph 18.4 mph N/A   Scattered Clouds
11:54 PM 72.0 °F 39.0 °F 30% 29.81 in 10.0 mi NNW 10.4 mph - N/A   Mostly Cloudy